COSMOS 1275 DEB, 13487

Orbit data source: Space-Track

COSMOS 1275 DEB, 13487 is space debris in LEO originally from a launch on Thu, 04 Jun 1981 UTC launched from the Plesetsk Missile And Space Complex (PKMTR). Debris objects in space refer to the collection of defunct objects orbiting the Earth. Examples of debris include non-operational satellites, rocket bodies, and fragments generated from explosions, collisions, or faulty payload assembly.

Loading next visibility...
Identifier
13487, 1981-053GH
Orbit
LEO
Country
Flag of CISCIS
Related business
Manufacturer
Unknown
Mission
Spacecraft
Bus & Motor
Unknown
Mass
Unknown
Launch date (UTC)
1981-06-04 (44 years ago)
Launch vehicle
Unknown
Launch site
Plesetsk Missile And Space Complex (PKMTR)
Object type
Payload
Rocket body
Debris
Shape & HBR
Unknown shape, 0.2 m
Radar Cross Section
Small (<0.1 m²)

Expand to show TLE details & history
Last TLE update: 10 hours ago

TLE from 10 hours ago
0 COSMOS 1275 DEB
1 13487U 81053GH  25286.61223560  .00175514  00000-0  10095-1 0  9997
2 13487  82.9261 358.6339 0022226 300.0899 154.4269 15.11439270212967
Epoch: 2025-10-13T14:41Z
TLE epoch observation values (Epoch: 2025-10-13T14:41:37.155Z)
Latitude
81.59641°
Longitude
-120.84152°
Altitude
559.171 km
Speed
7.581 km/s
True Right ascension
08h 07m 54s
True Declination
81° 32' 42"
Sunlit
Object was in daylight at epoch
Visualization orbit readout
Latitude
Unknown
Longitude
Unknown
Altitude
Unknown
Speed
Unknown
Apparent Right ascension
Unknown
Apparent Declination
Unknown
Sunlit
N/A
Visualization observer readout
Local Sidereal Time
19:18:59
Azimuth
Unknown
Elevation
Unknown
Doppler factor
Unknown
Orbital elements
Apogee altitude
544.125 km
Perigee altitude
513.422 km
Semi-major axis
6,906.91 km
Eccentricity
0.00222
Inclination
82.9261°
RAAN
358.6339°
Arg. of periapsis
300.0899°
True anomaly
154.53657°
Mean anomaly
154.4269°
Eccentric anomaly
154.48176°
Mean motion
3.78109 °/min
Orbital period
95.21 mins
BSTAR
0.010095
Loading maneuver chart data...
Computing Atmospheric mass density...
Loading historical data...
Loading historical data...
Loading historical data...
Loading historical data...
Loading historical data...
Loading historical data...
Loading historical data...

Documentation

Showing up to 5 results
|